{"data":{"norad_id":60396,"intl_designator":"2024-140T","name":"QIANFAN-18","alt_names":[],"object_type":"PAYLOAD","status":"ACTIVE","operator":null,"country":"PRC","launch_date":"2024-08-06","launch_site_code":"TAISC","launch_vehicle":null,"mission":null,"orbit_class":"UNKNOWN","rcs_meters":null,"size_class":null,"mass_kg":null,"dimensions":null,"purposes":[],"wikipedia_slug":null,"has_3d_model":false,"image_url":null,"decayed_at":null,"tle_current":{"epoch":"2026-09-22T21:25:42.057696Z","epoch_age_seconds":79511,"freshness":"FRESH","line1":"1 60396U 24140T   26265.89284789  .00000012  00000+0 -71662-7 0  9993","line2":"2 60396  88.9670 269.4795 0016357  88.1922 272.1103 13.51020984105890","mean_motion":13.51020984,"eccentricity":0.0016357,"inclination_deg":88.967,"raan_deg":269.4795,"arg_perigee_deg":88.1922,"mean_anomaly_deg":272.1103,"bstar":-7.1662e-8,"rev_number":10589,"period_min":106.58605728954,"perigee_km":1056.3240055058,"apogee_km":1080.6849484336,"semimajor_km":7446.6414769697,"source":"CELESTRAK","updated_at":"2026-09-23T09:00:20.601741Z"}}}